Home > Weather > Klaksvík > Past weeks

Flag for Faroe Islands Past Weather in Klaksvík, Faroe Islands, Faroe Islands — Yesterday and Last 2 Weeks

Now
53 °F

Overcast.


Feels Like: 50 °F
Forecast: 51 / 55 °F
Wind: 12 mph from Northwest

Location: Thorshavn

Current Time: Jul 29, 2016 at 8:49:18 PM

Latest Report: Jul 29, 2016 at 7:00 PM


Visibility: 25 mi

Pressure: 29.71 "Hg

Humidity: 89%

Dew Point: 50 °F

Location of KlaksvíkLocation

Past Weather in Klaksvík — Graph

°F

Klaksvík Temperature Yesterday

Maximum temperature yesterday: 59 °F (at 3:00 PM)
Minimum temperature yesterday: 51 °F (at 3:00 AM)
Average temperature yesterday: 54 °F

High & Low Weather Summary for the Past Weeks

 TemperatureHumidityPressure
High59 °F (Jul 28, 3:00 PM)100% (Jul 15, 6:00 PM)30.13 "Hg (Jul 15, 6:00 PM)
Low50 °F (Jul 15, 3:00 AM)67% (Jul 14, 7:00 PM)29.47 "Hg (Jul 16, 12:00 AM)
Average53 °F92%29.80 "Hg
* Reported Jul 14 7:00 PM — Jul 29 7:00 PM, Klaksvík, Weather by CustomWeather, © 2016

Note: Actual official high and low records may vary slightly from our data, if they occured in-between our weather recording intervals... More about our weather records

Advertising

Klaksvík Weather History for the Previous 24 Hours

Scroll right to see more
 ConditionsComfort  
Time TempWeatherWind HumidityBarometerVisibility
7:00 PM
Fri, Jul 29
53 °FOvercast.12 mph89%29.71 "Hg25 mi
6:00 PM54 °FOvercast.12 mph86%29.71 "Hg31 mi
5:00 PM56 °FOvercast.7 mph84%29.71 "Hg31 mi
4:00 PM54 °FOvercast.9 mph86%29.72 "Hg28 mi
3:00 PM54 °FOvercast.10 mph88%29.72 "Hg28 mi
2:00 PM54 °FLight rain. Overcast.9 mph88%29.72 "Hg9 mi
1:00 PM54 °FLight rain. Overcast.10 mph87%29.72 "Hg14 mi
12:00 PM55 °FOvercast.10 mph83%29.72 "Hg28 mi
11:00 AM53 °FLight rain. Overcast.12 mph89%29.72 "Hg12 mi
10:00 AM53 °FLight rain. Overcast.10 mph88%29.72 "Hg14 mi
9:00 AM54 °FOvercast.12 mph84%29.71 "Hg31 mi
8:00 AM54 °FPartly sunny.14 mph83%29.70 "Hg31 mi
7:00 AM54 °FOvercast.13 mph84%29.70 "Hg14 mi
6:00 AM54 °FOvercast.10 mph88%29.70 "Hg31 mi
5:00 AM54 °FOvercast.10 mph80%29.69 "Hg31 mi
4:00 AM54 °FOvercast.13 mph84%29.69 "Hg31 mi
1:00 AM53 °FOvercast.16 mph88%29.68 "Hg16 mi
11:00 PM
Thu, Jul 28
54 °FOvercast.16 mph88%29.65 "Hg31 mi
10:00 PM53 °FOvercast.8 mph93%29.65 "Hg7 mi
9:00 PM54 °FRain showers. Overcast.10 mph89%29.67 "Hg7 mi
Weather by CustomWeather, © 2016

See weather overviewHow to use our weather pages